{"data":{"norad_id":47836,"epoch":"2026-05-24T17:08:52.202112Z","epoch_age_seconds":99629,"freshness":"FRESH","line1":"1 47836U 21018BB  26144.71449308  .00003111  00000+0  11192-3 0  9995","line2":"2 47836  53.1602 251.4107 0001513  93.9774 266.1400 15.31717238288348","mean_motion":15.31717238,"eccentricity":0.0001513,"inclination_deg":53.1602,"raan_deg":251.4107,"arg_perigee_deg":93.9774,"mean_anomaly_deg":266.14,"bstar":0.00011192,"rev_number":28834,"period_min":94.012129933345,"perigee_km":469.65238281174,"apogee_km":471.72483744136,"semimajor_km":6848.8256101266,"source":"CELESTRAK","updated_at":"2026-05-25T13:38:16.606994Z"}}